User: anonymous   Login
Location: Unspecified
(0.0000°N, 0.0000°E)
Time: 11:59:59
(UTC+00:00)
Language:

ITAMSAT 1 - Orbit

View from above orbital plane
View from above orbital plane
View from above satellite
View from above satellite

Ground track
Ground track

The orbit data is extracted from the following two-line orbital elements,

1 22826U 93061D   21016.07277402 -.00000011  00000-0  13784-4 0  9998
2 22826  98.9183  29.8129 0009966 104.6440 255.5847 14.30441185424692
Epoch (UTC): 16 January 2021 01:44:47
Eccentricity: 0.0009966
inclination: 98.9183°
perigee height: 783 km
apogee height: 797 km
right ascension of ascending node: 29.8129°
argument of perigee: 104.6440°
revolutions per day: 14.30441185
mean anomaly at epoch: 255.5847°
orbit number at epoch: 42469

The dashed part of the orbit path shows where the satellite is in the earth's shadow,  

DLR